Location: College Park
(38.9810°N, 76.9370°W)
Time: 12:27:35
(UTC-05:00)

OTV 5 (USA 277) - Pass Details

Date: 08 January 2018
Orbit: 404 x 417 km, 43.0° (Epoch: 07 September)

Event Time Altitude Azimuth Distance (km) Brightness Sun altitude
Exits shadow 05:53:06 51° 327° (NNW) 516 ? -17.7°
Maximum altitude 05:53:39 62° 16° (NNE) 458 ? -17.6°
Drops below altitude 10° 05:56:54 10° 98° (E) 1,453 ? -17.0°
Sets 05:59:01 0° 102° (ESE) 2,311 ? -16.6°
